Regional Weather Roundup
Issued by NWS

Home | Current Version | Previous Version | Graphics & Text | Print | Product List | Glossary Off
Versions: 1 2 3 4 5 6 7 8 9 10 11 12 13 14 15 16 17 18 19 20 21 22 23 24 25 26 27 28 29 30 31 32 33 34 35 36 37 38 39 40 41 42 43 44 45 46 47 48 49 50

000
ASUS43 KMKX 021111
RWRWI

WISCONSIN REGIONAL WEATHER ROUNDUP
NATIONAL WEATHER SERVICE MILWAUKEE/SULLIVAN WI
600 AM CDT TUE SEP 02 2014

NOTE: "FAIR" INDICATES FEW OR NO CLOUDS BELOW 12,000 FEET WITH NO
SIGNIFICANT WEATHER AND/OR OBSTRUCTIONS TO VISIBILITY.

WIZ001-002-006>008-014>016-023>028-021200-
NORTHWEST WISCONSIN

CITY           SKY/WX    TMP DP  RH WIND       PRES   REMARKS
SUPERIOR ARPT  MOCLDY    53  51  95 SW6       29.81S
ASHLAND        MOCLDY    54  52  93 W6        29.80S
HAYWARD        MOCLDY    50  49  96 CALM      29.84R
SIREN          CLOUDY    53  51  96 CALM      29.85R
RICE LAKE      CLOUDY    56  55  95 CALM      29.85S
LADYSMITH      MOCLDY    55  54  96 CALM      29.85S
EAU CLAIRE     CLOUDY    59  58  96 SW3       29.83R
MENOMONIE      CLOUDY    61  58  91 SW7       29.84R
NEW RICHMOND   CLOUDY    59  59  99 CALM      29.85S
OSCEOLA        CLOUDY    57  57 100 CALM      29.87S
$$

WIZ003>005-009-010-017-018-021200-
NORTH CENTRAL WISCONSIN

CITY           SKY/WX    TMP DP  RH WIND       PRES   REMARKS
WOODRUFF       CLEAR     53  52  95 CALM      29.82S
RHINELANDER    CLEAR     52  51  97 W6        29.84R
EAGLE RIVER    MOCLDY    50  50 100 CALM      29.82S
LAND O LAKES     N/A     43  43 100 CALM      29.83R FOG
PHILLIPS       CLOUDY    53  53  98 CALM      29.82S
TOMAHAWK       CLEAR     47  46  97 CALM      29.84S
MEDFORD        MOCLDY    56  55  97 S5        29.84S
MERRILL        PTCLDY    47  47 100 CALM      29.85R
$$

WIZ029-030-035-036-043>047-021200-
CENTRAL WISCONSIN

CITY           SKY/WX    TMP DP  RH WIND       PRES   REMARKS
WAUSAU         CLEAR     57  55  93 S5        29.83S
MOSINEE        CLEAR     55  55 100 CALM      29.85S
MARSHFIELD     PTCLDY    57  56  96 SW3       29.85S
STEVENS POINT  CLEAR     51  50  98 CALM      29.86S
WAUPACA          N/A     56  55  94 CALM      29.85R FOG
WAUTOMA        PTCLDY    52  52 100 CALM      29.87R
WISC RAPIDS    PTCLDY    54  53  97 CALM      29.87R FOG
CAMP DOUGLAS   PTCLDY    52  52 100 SE2       29.86R
$$

WIZ011>013-019>022-031-037>040-048>050-021200-
NORTHEAST WISCONSIN

CITY           SKY/WX    TMP DP  RH WIND       PRES   REMARKS
ANTIGO         MOCLDY    49  49 100 CALM      29.86R
STURGEON BAY   CLEAR     59  54  82 SW6       29.83S
GREEN BAY      CLEAR     54  53  97 CALM      29.84R FOG
MANITOWOC      CLEAR     61  59  93 W6        29.85R
APPLETON       PTCLDY    55  55 100 VRB5      29.85S
CLINTONVILLE   CLEAR     52  52 100 CALM      29.84S
OSHKOSH        CLEAR     60  58  92 SW3       29.85S
$$

WIZ032>034-041-042-053>061-021200-
SOUTHWEST WISCONSIN

CITY           SKY/WX    TMP DP  RH WIND       PRES   REMARKS
LA CROSSE      MOCLDY    62  60  93 S7        29.85S
SPARTA         MOCLDY    52  51  97 CALM      29.87R
VIROQUA        FAIR      59  59 100 SW5       29.88S
BOSCOBEL       FOG       58  56  93 CALM      29.88R VSB 1/2
PRAIRIE DU CHI PTCLDY    57  55  94 CALM      29.87F
PLATTEVILLE      N/A     58  57  97 CALM      29.89S VSB 3/4
$$

WIZ056-057-062-063-064-067-068-021200-
SOUTH CENTRAL WISCONSIN

CITY           SKY/WX    TMP DP  RH WIND       PRES   REMARKS
BARABOO/DELLS  CLEAR     57  55  93 CALM      29.87S
LONE ROCK      FOG       61  57  87 CALM      29.87S VSB 1/4
WATERTOWN      CLEAR     55  55 100 CALM      29.87S
MADISON        PTCLDY    57  55  93 CALM      29.87S
MIDDLETON        N/A     55  55 100 CALM      29.88S
MONROE         CLEAR     59  59 100 SW5       29.88S
JANESVILLE     FOG       61  59  94 CALM      29.87F VSB 3/4
$$

WIZ051-052-058>065-066-070>072-021200-
SOUTHEAST WISCONSIN

CITY           SKY/WX    TMP DP  RH WIND       PRES   REMARKS
MILWAUKEE      PTCLDY    65  61  87 CALM      29.87F
WAUKESHA       CLEAR     57  57 100 CALM      29.89S
MILWAUKEE/TIMM PTCLDY    59  57  94 CALM      29.87F
RACINE         PTCLDY    65  62  90 W7        29.88F
BURLINGTON     FOG       56  56 100 CALM      29.88S VSB 1/4
KENOSHA        FOG       61  61 100 W3        29.88R VSB 1/2
FOND DU LAC    CLEAR     56  55  97 S5        29.86S FOG
SHEBOYGAN      CLEAR     56  55  97 S3        29.86R
WEST BEND      FOG       55  55 100 CALM      29.87R VSB 1/2
JUNEAU         FOG       56  56 100 CALM      29.88R VSB<1/4
$$

LSZ147-162-021200-
LAKE SUPERIOR

STATION/POSITION TIME  TEMP    WIND        PRES    WAVE
                       AIR SEA DIR/SP/G            HT/PER
                 (UTC) (F)     (DEG/KT/KT) (MB)    (FT/S)
W MID LAKE BUOY  1050   60 57  250/ 10/ 10 1007.5R   1/ 3
DEVILS ISLAND    1100   61     260/ 16/ 17 1008.3R
PORT WING        1000   58     190/  6/  7 1009.1
SAXON HARBOR     1000   58     200/  5/  7 1008.5S
$$

LMZ867-665-643>646-021200-
LAKE MICHIGAN

STATION/POSITION TIME  TEMP    WIND        PRES    WAVE
                       AIR SEA DIR/SP/G            HT/PER
                 (UTC) (F)     (DEG/KT/KT) (MB)    (FT/S)
N MID LAKE BUOY  1050   65 65  260/ 10/ 12 1009.2R   2/ 6
NORTHPORT PIER   1000   61     250/  2/  7 1009.1R
KEWAUNEE LAKESHO 1000   59     300/  4/  5 1009.3R
SHEBOYGAN LAKESH 1100   62 49  250/  7/  7 1011.0R
ATWATER BUOY     1100   66     250/  6/  6 1012.3F
MILWAUKEE LAKESH 1000   68     280/  6/  8   N/A
S MID LAKE BUOY  1050   69 69  290/  6/  8 1011.0F   1/ 3
KENOSHA   LAKESH 1000   67     280/  7/  9 1011.2S
$$

TC  - TEMPERATURE IN CELSIUS
VSB - VISIBILITY IN STATUTE MILES
WCI - WIND CHILL INDEX
HX  - HEAT INDEX




USA.gov is the U.S. government's official web portal to all federal, state and local government web resources and services.